Date String (YYYY-MM-DD hh:mm:ss) UTC,Instrument flags,Ambient pressure (hPa),Sample flow (lpm),Bypass flow (lpm),Sample temperature (°C),Ambient temperature (°C),ASC tube jacket temperature (°C),LED temperature (°C),Box temperature (°C),Sample RH (%),Span deviation,Mass concentration (μg/m³),Mass concentration (μg/m³),Mass concentration (μg/m³)
DateTimeUTC,F1_M11,P_M11,Q1_M11,Q2_M11,T1_M11,T2_M11,T3_M11,T4_M11,T5_M11,U1_M11,ZSPAN_M11,X0_M11,X2_M11,X1_M11
2022-01-27 16:00:00,,0833.6,5.00,0.00,22.1,21.4,00.0,31.0,23.7,11.7,0000.0,0011.09,0007.16,0006.87
2022-01-27 16:01:00,,0833.6,5.00,0.00,22.0,21.4,00.0,31.0,23.7,11.8,0000.0,0011.81,0007.10,0006.81
2022-01-27 16:02:00,,0833.6,5.00,0.00,22.0,21.3,00.0,31.0,23.7,11.9,0000.0,0011.73,0007.03,0006.75
2022-01-27 16:03:00,,0833.6,5.00,0.00,22.0,21.3,00.0,31.0,23.6,12.0,0000.0,0011.64,0006.97,0006.70
2022-01-27 16:04:00,,0833.6,5.00,0.00,22.0,21.3,00.0,30.9,23.6,12.1,0000.0,0011.55,0006.90,0006.61
2022-01-27 16:05:00,,0833.6,4.99,0.00,21.9,21.3,00.0,30.9,23.6,12.2,0000.0,0010.94,0006.83,0006.53
2022-01-27 16:06:00,,0833.7,4.99,0.00,21.9,21.3,00.0,30.9,23.6,12.3,0000.0,0011.17,0006.73,0006.44
2022-01-27 16:07:00,,0833.7,5.00,0.00,21.9,21.2,00.0,30.9,23.6,12.3,0000.0,0011.34,0006.65,0006.37
2022-01-27 16:08:00,,0833.7,4.99,0.00,21.9,21.2,00.0,30.9,23.5,12.4,0000.0,0011.25,0006.56,0006.28
2022-01-27 16:09:00,,0833.7,5.00,0.00,21.9,21.2,00.0,30.9,23.5,12.5,0000.0,0011.26,0006.51,0006.24
2022-01-27 16:10:00,,0833.7,5.00,0.00,21.9,21.2,00.0,30.9,23.5,12.5,0000.0,0011.25,0006.48,0006.20
2022-01-27 16:11:00,,0833.7,5.00,0.00,21.9,21.3,00.0,30.9,23.5,12.6,0000.0,0011.24,0006.46,0006.17
2022-01-27 16:12:00,,0833.7,5.00,0.00,22.0,22.0,00.0,30.9,23.8,12.5,0000.0,0010.63,0006.42,0006.13
2022-01-27 16:13:00,,0833.7,5.01,0.00,22.1,22.9,00.0,30.9,24.0,12.5,0000.0,0010.28,0006.39,0006.09
2022-01-27 16:14:00,,0833.8,5.01,0.00,22.2,23.1,00.0,31.0,24.2,12.5,0000.0,0010.25,0006.35,0006.04
2022-01-27 16:15:00,,0833.7,4.98,0.00,22.3,22.9,00.0,31.0,24.2,12.5,0000.0,0010.20,0006.32,0006.01
2022-01-27 16:16:00,,0833.8,5.00,0.00,22.3,22.7,00.0,31.0,24.2,12.5,0000.0,0010.10,0006.28,0006.00
2022-01-27 16:17:00,,0833.8,5.01,0.00,22.3,22.5,00.0,31.1,24.1,12.5,0000.0,0009.68,0006.23,0005.97
2022-01-27 16:18:00,,0833.8,5.00,0.00,22.3,22.3,00.0,31.1,24.1,12.5,0000.0,0009.29,0006.21,0005.96
2022-01-27 16:19:00,,0833.8,5.00,0.00,22.3,22.1,00.0,31.1,24.1,12.5,0000.0,0009.23,0006.20,0005.95
2022-01-27 16:20:00,,0833.8,4.98,0.00,22.3,22.0,00.0,31.1,24.0,12.6,0000.0,0009.11,0006.15,0005.91
2022-01-27 16:21:00,,0833.8,5.01,0.00,22.3,21.9,00.0,31.1,24.0,12.7,0000.0,0009.02,0006.11,0005.88
2022-01-27 16:22:00,,0833.9,5.00,0.00,22.2,21.8,00.0,31.1,23.9,12.6,0000.0,0008.99,0006.11,0005.90
2022-01-27 16:23:00,,0833.9,5.00,0.00,22.2,21.8,00.0,31.1,23.9,12.4,0000.0,0009.07,0006.18,0005.97
2022-01-27 16:24:00,,0833.9,5.00,0.00,22.2,21.7,00.0,31.1,23.9,12.4,0000.0,0009.12,0006.25,0006.05
2022-01-27 16:25:00,,0833.9,5.00,0.00,22.2,21.6,00.0,31.1,23.9,12.4,0000.0,0009.18,0006.32,0006.14
2022-01-27 16:26:00,,0833.9,5.00,0.00,22.1,21.6,00.0,31.1,23.8,12.4,0000.0,0009.44,0006.43,0006.23
2022-01-27 16:27:00,,0834.0,5.00,0.00,22.1,21.5,00.0,31.1,23.7,12.4,0000.0,0009.73,0006.55,0006.31
2022-01-27 16:28:00,,0834.0,5.00,0.00,22.1,21.4,00.0,31.1,23.7,12.4,0000.0,0009.91,0006.66,0006.40
2022-01-27 16:29:00,,0834.0,5.00,0.00,22.0,21.3,00.0,31.0,23.7,12.5,0000.0,0010.08,0006.77,0006.47
2022-01-27 16:30:00,,0834.0,5.00,0.00,22.0,21.3,00.0,31.0,23.6,12.6,0000.0,0010.31,0006.86,0006.53
2022-01-27 16:31:00,,0834.1,5.00,0.00,22.0,21.2,00.0,31.0,23.6,12.6,0000.0,0010.47,0006.95,0006.61
2022-01-27 16:32:00,,0834.0,5.00,0.00,21.9,21.2,00.0,31.0,23.5,12.6,0000.0,0010.60,0007.01,0006.66
2022-01-27 16:33:00,,0834.0,4.99,0.00,21.9,21.2,00.0,31.0,23.5,12.6,0000.0,0010.74,0007.05,0006.67
2022-01-27 16:34:00,,0834.1,4.99,0.00,21.9,21.1,00.0,31.0,23.5,12.6,0000.0,0010.76,0007.03,0006.63
2022-01-27 16:35:00,,0834.0,5.00,0.00,21.9,21.2,00.0,31.0,23.5,12.6,0000.0,0010.82,0007.03,0006.61
2022-01-27 16:36:00,,0834.0,5.01,0.00,21.9,21.9,00.0,31.0,23.7,12.6,0000.0,0010.80,0007.01,0006.58
2022-01-27 16:37:00,,0834.0,5.01,0.00,22.1,22.7,00.0,31.0,24.0,12.4,0000.0,0010.86,0006.98,0006.56
2022-01-27 16:38:00,,0834.1,4.99,0.00,22.2,23.0,00.0,31.1,24.2,12.2,0000.0,0010.70,0006.96,0006.55
2022-01-27 16:39:00,,0834.1,5.00,0.00,22.2,22.8,00.0,31.1,24.1,12.1,0000.0,0010.68,0006.95,0006.54
2022-01-27 16:40:00,,0834.1,5.00,0.00,22.2,22.5,00.0,31.1,24.0,12.1,0000.0,0010.66,0006.93,0006.54
2022-01-27 16:41:00,,0834.1,4.99,0.00,22.2,22.2,00.0,31.1,23.9,12.1,0000.0,0010.57,0006.94,0006.57
2022-01-27 16:42:00,,0834.1,5.01,0.00,22.2,22.0,00.0,31.1,23.8,12.2,0000.0,0010.51,0006.95,0006.59
2022-01-27 16:43:00,,0834.2,5.01,0.00,22.1,21.8,00.0,31.1,23.8,12.2,0000.0,0010.54,0006.99,0006.63
2022-01-27 16:44:00,,0834.2,5.00,0.00,22.1,21.7,00.0,31.1,23.7,12.2,0000.0,0010.52,0007.01,0006.68
2022-01-27 16:45:00,,0834.2,5.00,0.00,22.1,21.6,00.0,31.1,23.7,12.3,0000.0,0010.51,0007.04,0006.73
2022-01-27 16:46:00,,0834.2,4.99,0.00,22.0,21.5,00.0,31.1,23.6,12.3,0000.0,0010.53,0007.08,0006.77
2022-01-27 16:47:00,,0834.3,5.00,0.00,22.0,21.4,00.0,31.1,23.6,12.4,0000.0,0010.57,0007.11,0006.80
2022-01-27 16:48:00,,0834.3,5.00,0.00,22.0,21.3,00.0,31.0,23.6,12.4,0000.0,0010.43,0007.15,0006.83
2022-01-27 16:49:00,,0834.3,5.00,0.00,21.9,21.3,00.0,31.0,23.5,12.5,0000.0,0010.42,0007.17,0006.86
2022-01-27 16:50:00,,0834.3,5.01,0.00,21.9,21.2,00.0,31.0,23.5,12.6,0000.0,0010.44,0007.18,0006.87
2022-01-27 16:51:00,,0834.3,4.99,0.00,21.9,21.1,00.0,31.0,23.5,12.6,0000.0,0010.48,0007.21,0006.89
2022-01-27 16:52:00,,0834.4,4.99,0.00,21.8,21.1,00.0,31.0,23.4,12.6,0000.0,0011.26,0007.22,0006.88
2022-01-27 16:53:00,,0834.4,5.01,0.00,21.8,21.1,00.0,30.9,23.4,12.7,0000.0,0011.93,0007.24,0006.89
2022-01-27 16:54:00,,0834.4,4.99,0.00,21.8,21.1,00.0,30.9,23.4,12.7,0000.0,0012.00,0007.22,0006.88
2022-01-27 16:55:00,,0834.4,5.01,0.00,21.8,21.7,00.0,30.9,23.6,12.7,0000.0,0012.06,0007.24,0006.88
2022-01-27 16:56:00,,0834.4,5.00,0.00,22.0,22.5,00.0,31.0,23.8,12.6,0000.0,0012.03,0007.24,0006.88
2022-01-27 16:57:00,,0834.4,4.99,0.00,22.1,23.1,00.0,31.0,24.1,12.5,0000.0,0012.40,0007.22,0006.88
2022-01-27 16:58:00,,0834.4,5.00,0.00,22.2,22.8,00.0,31.0,24.1,12.5,0000.0,0012.52,0007.21,0006.88
2022-01-27 16:59:00,,0834.4,5.00,0.00,22.2,22.6,00.0,31.0,24.0,12.5,0000.0,0012.45,0007.17,0006.85
